Location: Arkansas Cemetery
(33.0868°N, 97.6089°W)
Time: 20:50:57
(UTC+00:00)

Daily predictions for brighter satellites

Satellite Brightness Start Highest point End
(mag) Time Altitude Azimuth Time Altitude Azimuth Time Altitude Azimuth
NOSS 3-1 (C) 2.6 12:00:33 11° SW 12:04:46 70° WNW 12:09:46 10° NNE
DELTA 2 R/B(2) 4.5 12:06:45 29° NW 12:07:52 48° NNE 12:09:47 10° E
Exosat Rocket 3.9 12:02:42 10° NNW 12:08:03 67° ENE 12:13:00 10° SSE
Cosmos 1980 Rocket 2.1 12:02:32 10° SSW 12:08:04 68° WNW 12:13:39 10° NNE
NOSS 3-1 (A) 4.3 12:05:14 10° S 12:09:15 37° ESE 12:13:41 10° NE
Cosmos 1674 Rocket 3.5 12:08:37 10° N 12:13:02 84° W 12:17:25 10° S
IRS-1D 3.8 12:08:31 10° N 12:13:24 43° WNW 12:18:11 10° SW
COSMOS 2455 3.1 12:07:47 10° SW 12:13:31 44° WNW 12:19:16 10° NNE
USA 215 4.0 12:09:27 10° ESE 12:15:43 50° NE 12:22:00 10° NNW
Cosmos 1697 Rocket 3.8 12:18:26 18° W 12:20:39 22° WNW 12:24:59 10° N
Cosmos 1503 Rocket 4.0 12:16:34 10° SSW 12:21:36 56° WNW 12:26:42 10° N
Cosmos 2084 3.2 12:19:50 10° NNW 12:23:54 88° WSW 12:27:55 10° SSE
SKYMED 2 4.0 12:20:53 10° SSW 12:24:55 38° W 12:28:58 10° NNW
Cosmos 1484 Rocket 2.5 12:23:36 10° NNE 12:27:07 87° ESE 12:30:36 10° SSW
Cosmos 2297 Rocket 3.0 12:23:42 10° NW 12:28:27 28° WSW 12:33:12 10° SSW
COSMO-SKYMED 1 2.5 12:28:10 10° S 12:32:11 56° W 12:36:14 10° NNW
IGS 5A 3.4 12:28:38 10° N 12:32:30 55° WNW 12:36:23 10° SSW
Cosmos 1570 Rocket 4.3 12:29:57 10° NNW 12:34:55 46° WSW 12:39:51 10° S
Landsat 7 4.0 12:41:30 10° NNE 12:46:08 77° E 12:50:46 10° S
Cosmos 1782 Rocket 3.5 12:43:50 10° SSW 12:48:10 70° W 12:52:34 10° N
Cosmos 1908 Rocket 4.3 12:45:23 10° SW 12:49:10 30° W 12:53:01 10° NNW
Cosmos 2208 Rocket 4.4 12:46:44 10° NNW 12:51:55 47° WSW 12:57:04 10° S
Cosmos 2221 Rocket 3.9 12:49:42 10° NNW 12:54:02 46° W 12:58:20 10° SSW
Cosmos 2100 Rocket 4.3 12:48:45 10° S 12:55:06 79° E 13:01:29 10° N
